Theta_e
308 308 308 308 308 308 309 309 309 309 310 310 310 310 310 311 311 311 311 311 310 310 310 310 310 310 311 311 311 310 310 310 310 310 312 315 316 316 313 311 312 312 312 312 312 313 313 314 314 315 315 316 317 318 318 317 318 320 325 324 321 323 322 321 321 320 320 319 317 317 318 317 317 316 316 316 316 316 317 317 317 316 316 315 316 316 316 317
309 308 308 308 308 308 309 309 309 310 310 310 310 310 311 311 311 311 311 311 311 310 310 310 310 310 311 311 311 310 310 310 310 311 314 316 315 313 312 312 312 312 312 312 312 314 314 315 314 314 316 316 316 318 319 318 317 320 325 322 322 324 321 319 319 319 320 319 317 317 317 318 317 316 316 316 316 316 317 317 317 316 316 315 315 315 315 315
309 309 308 308 308 309 309 309 309 309 310 310 310 310 311 311 311 311 311 311 311 311 310 310 310 311 311 311 310 310 310 309 310 313 314 314 313 312 312 312 312 312 312 312 313 314 315 315 314 314 316 315 315 317 319 319 317 319 323 323 322 321 319 318 318 318 319 319 318 317 317 317 317 317 316 316 316 316 316 316 317 317 317 316 315 315 315 315
309 308 308 308 309 309 309 309 309 309 310 310 310 310 311 311 311 311 311 311 311 311 310 310 311 311 311 311 310 310 310 310 311 313 314 313 312 313 313 312 312 312 312 312 312 314 315 315 314 314 316 315 315 316 317 318 318 319 320 320 319 318 318 317 317 317 317 319 318 317 317 317 317 318 317 316 317 316 317 317 316 317 317 317 317 316 315 315
309 308 308 308 308 309 309 309 309 309 310 310 310 310 311 311 311 311 311 311 311 311 310 310 310 311 311 310 310 310 310 312 314 314 312 312 313 313 313 312 312 312 313 312 313 313 314 315 314 314 315 316 316 316 316 316 317 318 317 318 317 317 318 316 316 316 317 318 318 317 317 317 317 317 317 317 317 317 317 318 317 318 318 318 317 317 316 315
309 308 308 308 308 309 309 309 309 309 310 310 310 310 310 311 311 311 311 311 311 311 310 310 310 310 310 310 309 309 311 315 315 315 312 311 313 313 312 312 312 312 312 312 313 313 314 314 314 315 316 316 316 315 316 316 316 317 317 316 316 317 317 316 316 316 317 318 317 317 317 317 317 317 317 317 317 318 318 318 317 318 318 318 318 317 316 316
309 309 308 308 308 309 309 309 309 309 310 310 310 310 311 311 311 311 311 311 311 311 310 310 310 310 310 309 309 309 311 314 314 314 312 311 313 313 313 312 312 313 313 313 314 314 314 315 315 315 316 316 316 316 316 316 315 317 317 316 316 317 316 316 316 315 316 317 316 317 317 317 317 317 317 317 317 317 317 318 317 317 317 317 317 316 316 316
309 309 309 308 308 309 309 309 309 309 310 310 310 310 310 311 311 311 311 311 311 310 310 310 309 309 309 309 310 310 310 313 314 313 312 311 312 314 313 312 312 312 312 313 314 314 315 315 315 316 316 316 316 316 316 315 315 316 317 316 316 316 315 315 315 315 315 316 316 316 317 317 317 317 316 317 317 317 317 317 317 317 316 316 316 316 316 315
309 309 309 308 308 309 309 309 309 309 310 310 310 310 310 311 311 311 311 311 311 310 310 310 309 308 309 308 310 312 313 314 314 313 312 312 313 313 312 312 312 312 312 313 314 314 314 315 315 316 316 316 316 316 315 316 316 316 317 316 316 316 315 315 314 315 315 315 316 316 317 317 317 316 316 317 317 317 317 317 317 317 316 316 316 315 315 315
309 309 309 309 308 308 309 309 309 309 310 310 310 310 310 310 311 311 311 311 310 310 310 310 309 308 308 309 310 313 315 315 313 313 313 313 313 313 312 312 312 312 314 314 313 314 315 315 316 316 316 316 316 316 316 317 317 316 317 317 317 316 315 316 316 315 315 315 315 316 317 316 316 316 316 317 317 317 317 317 317 317 316 316 316 315 315 315
310 309 309 309 308 308 309 309 309 309 310 310 310 310 310 310 311 311 311 310 310 310 310 310 308 308 308 310 311 313 315 314 312 312 313 313 313 312 312 313 313 313 315 315 313 313 314 316 316 315 315 316 316 316 316 317 317 317 317 317 316 317 316 316 316 315 315 316 315 316 316 316 316 316 316 317 318 317 316 317 317 316 316 316 316 316 315 316
311 310 309 309 308 308 308 309 309 309 310 310 309 309 309 310 310 311 311 310 310 310 310 309 308 308 308 309 311 315 316 313 312 312 313 313 312 312 312 314 314 314 315 315 313 313 313 314 315 316 315 316 315 315 316 316 317 317 317 317 316 317 317 316 316 316 315 316 316 316 317 318 317 317 317 316 317 317 317 317 317 317 316 316 316 316 316 316
311 311 310 309 308 308 308 308 309 309 309 309 309 309 309 310 310 311 310 310 310 309 309 309 307 308 308 310 311 313 315 313 312 313 313 313 312 312 313 315 315 314 315 315 313 312 313 313 315 316 316 317 316 316 316 316 317 317 316 317 317 317 316 317 317 316 316 316 316 316 318 320 318 318 318 317 317 317 317 317 317 317 317 317 317 316 316 316
311 310 310 309 308 308 308 308 309 309 309 309 309 309 309 310 310 310 310 310 309 308 308 308 307 308 308 312 314 312 313 312 312 312 312 312 312 312 314 315 315 314 314 314 313 313 313 314 315 316 316 317 316 316 316 317 316 317 317 317 319 318 317 317 317 316 316 316 316 316 318 320 318 318 318 318 318 317 317 317 317 318 318 318 318 318 317 317
310 310 309 309 308 308 308 309 309 309 309 309 309 309 309 310 310 310 309 308 307 307 307 307 307 308 309 312 314 312 313 312 312 312 312 312 312 313 314 315 315 315 315 314 313 314 314 314 315 315 316 316 316 317 317 316 316 317 317 317 319 319 318 319 317 316 317 316 316 317 318 319 318 318 319 318 318 318 318 317 317 318 318 318 318 319 318 318
310 310 309 309 309 308 308 309 309 309 309 309 309 309 309 309 309 308 308 307 307 306 306 307 307 309 311 313 313 313 313 312 312 312 312 312 313 314 314 314 315 315 315 315 314 314 314 315 316 316 316 315 317 319 319 317 317 318 317 318 320 319 318 318 317 316 317 316 316 317 318 318 318 318 318 318 318 317 317 317 317 318 318 318 318 319 319 318
310 309 309 308 308 308 308 308 308 308 308 308 308 308 308 307 307 307 306 306 306 306 307 310 309 309 311 313 314 313 313 313 312 312 312 312 314 314 314 314 315 315 315 315 315 315 315 316 316 316 316 316 317 318 319 319 318 319 318 318 320 320 318 317 317 316 316 316 317 317 317 318 317 317 317 318 318 318 317 317 318 318 318 319 319 319 319 319
309 308 308 308 308 308 308 308 308 308 308 308 307 307 306 306 306 306 306 306 306 306 308 311 311 310 310 311 314 313 313 313 312 312 312 312 313 314 315 315 314 315 315 315 316 317 316 315 315 317 317 316 317 318 320 320 318 319 319 317 318 319 317 317 317 317 317 316 317 317 317 317 317 316 317 318 318 318 318 318 318 318 318 318 318 318 318 319
308 308 307 307 308 307 307 307 307 307 307 307 307 307 307 306 306 306 306 306 307 308 309 311 311 311 311 311 313 314 312 313 312 312 312 312 312 313 315 315 315 315 316 316 316 316 317 317 317 320 319 316 317 318 319 319 317 317 319 318 318 317 317 317 317 316 316 317 316 317 317 317 317 317 317 318 318 318 318 318 318 318 318 318 318 317 318 318
307 307 307 307 307 307 307 307 307 307 307 307 307 307 308 308 308 308 308 307 308 311 312 311 310 312 313 312 314 314 312 313 312 312 312 312 312 313 314 315 315 315 316 318 318 316 317 319 321 322 320 317 317 317 317 317 315 316 318 318 317 317 317 317 317 316 315 316 316 317 317 317 317 318 317 317 318 318 317 318 318 318 318 318 318 318 317 318
307 307 307 306 306 307 307 307 307 307 307 308 307 308 310 310 310 311 311 309 308 312 313 312 311 314 314 313 314 314 312 312 313 312 312 312 312 313 315 315 315 315 316 318 317 316 317 320 322 320 318 317 317 317 317 316 315 316 317 317 318 318 318 317 317 315 314 316 317 317 317 316 317 317 317 317 317 317 317 317 317 317 318 318 318 318 318 318
307 307 307 307 307 307 307 307 308 308 308 308 307 309 312 311 311 312 311 309 308 309 311 312 313 314 313 313 313 313 313 313 314 313 312 312 313 314 315 315 314 315 316 317 317 317 318 319 319 317 317 317 317 317 316 316 317 317 317 319 320 321 319 317 316 316 314 316 317 317 317 316 316 317 316 316 316 317 317 317 317 317 317 318 318 319 319 318
308 308 308 308 308 307 307 308 308 308 308 308 307 310 312 311 311 311 311 311 311 310 310 311 312 313 312 312 313 314 314 314 315 314 312 312 314 314 315 314 313 315 317 317 318 319 318 317 316 316 317 317 316 316 316 316 317 319 319 318 321 322 320 317 316 317 315 315 317 318 317 316 316 317 316 316 316 316 317 317 317 317 318 318 318 318 319 319
310 309 308 308 308 308 308 308 308 308 307 307 307 309 310 311 310 310 311 313 313 312 310 310 312 313 312 312 312 314 315 314 315 315 312 312 314 314 314 313 313 315 316 316 316 318 318 316 316 316 316 317 316 315 316 316 316 320 321 320 320 320 319 318 317 318 316 317 320 319 320 322 320 321 321 318 318 317 317 318 318 318 318 318 318 318 318 319
312 309 309 309 308 308 308 308 308 307 307 307 307 308 309 310 310 309 311 313 313 313 311 310 311 312 312 313 311 313 315 314 316 315 311 313 314 314 315 314 314 314 316 316 315 316 316 315 316 317 316 317 317 316 319 319 317 319 322 323 320 318 320 320 321 321 318 317 320 319 322 326 324 323 324 322 322 320 319 318 318 319 318 318 318 317 317 318
313 310 309 309 308 309 308 308 308 307 307 307 307 308 308 308 308 309 311 313 314 312 311 311 311 310 312 313 312 313 313 314 316 315 312 313 314 314 315 315 314 314 315 316 316 316 316 315 317 320 319 320 319 318 320 321 317 315 321 324 321 320 323 322 321 321 319 318 319 318 320 322 318 317 320 320 321 323 322 319 318 318 318 318 318 318 319 319
316 314 311 308 308 308 308 308 308 307 307 307 307 307 308 308 308 309 312 314 315 313 312 311 311 311 312 312 312 312 313 314 316 315 313 313 314 314 314 314 314 314 315 317 318 318 316 317 320 321 321 323 320 318 320 320 317 318 323 323 321 322 323 322 321 321 320 321 321 320 319 320 318 317 317 316 316 320 321 321 319 317 319 319 320 320 320 321
319 318 315 312 309 308 309 310 310 307 307 308 307 307 308 308 309 310 312 314 316 315 313 311 311 312 312 311 312 312 313 315 315 315 314 313 314 314 313 314 314 314 315 317 319 318 316 319 323 321 321 322 320 321 324 320 319 322 323 322 322 323 323 321 321 320 322 322 322 323 321 321 322 319 318 318 316 317 319 320 319 317 318 319 320 321 321 321
320 320 319 317 314 310 309 311 311 308 308 309 307 306 308 309 310 312 312 314 316 313 312 312 311 313 313 312 313 312 312 314 314 315 314 313 314 313 313 314 313 315 315 315 318 320 317 316 318 320 321 320 319 321 326 324 321 320 321 322 323 323 323 322 320 321 322 319 320 326 323 318 318 315 317 319 317 318 319 320 319 316 318 321 321 322 321 320
319 320 321 320 318 314 310 310 310 308 307 308 307 306 308 310 311 312 312 314 317 314 311 311 311 313 313 312 313 312 312 314 314 314 313 313 314 313 314 314 313 317 317 317 319 317 314 312 314 318 318 317 316 316 319 322 320 318 321 324 322 321 322 322 321 320 321 319 320 326 324 317 314 316 319 320 318 319 319 318 318 318 320 322 322 321 320 318
319 319 320 320 319 317 313 311 310 308 308 308 307 306 308 312 312 312 311 313 316 315 310 310 312 313 313 312 313 312 312 314 313 313 313 314 314 313 314 314 315 319 320 319 319 317 316 316 315 315 314 314 316 316 317 318 318 320 322 322 320 320 322 321 321 321 321 320 321 325 324 318 315 318 321 321 320 320 319 318 318 320 321 321 322 321 319 318
318 319 319 319 320 320 317 315 313 309 308 308 307 308 310 313 313 313 312 311 314 315 313 313 313 312 312 313 313 311 312 314 314 313 314 315 314 313 314 315 316 319 319 318 319 320 320 319 317 315 314 314 318 320 318 317 319 323 322 320 319 320 322 323 324 325 324 319 321 324 323 319 316 317 319 319 320 319 318 318 318 318 319 321 322 321 320 319
316 318 319 319 320 320 319 319 317 311 308 308 307 311 314 312 311 313 312 311 314 317 315 314 314 313 313 313 313 313 313 315 314 314 315 315 315 314 314 315 315 317 318 317 319 320 320 321 319 316 315 315 317 320 318 318 319 321 320 321 322 318 319 321 322 324 325 321 321 322 322 321 318 317 319 319 318 318 318 318 318 317 317 318 319 319 319 319
314 316 318 318 319 320 320 320 319 313 308 308 309 313 315 311 310 312 312 312 316 318 316 315 314 313 313 314 314 313 314 316 314 314 316 316 316 316 315 315 315 315 316 315 318 319 318 321 320 317 316 316 317 318 318 318 319 318 318 320 322 320 317 318 319 322 324 322 319 318 322 324 320 318 322 319 317 318 318 318 318 318 318 318 318 318 319 319
313 313 315 317 318 319 319 320 320 314 308 309 311 312 313 311 311 312 311 314 317 317 316 315 315 314 314 316 316 313 315 318 316 315 318 317 315 316 315 314 314 315 315 314 317 318 316 319 320 317 315 316 317 319 318 318 317 317 318 319 321 321 316 317 320 320 320 320 319 320 323 323 319 318 320 318 317 318 318 318 318 318 318 318 318 318 317 318
312 312 314 316 317 317 318 319 320 316 310 310 311 310 311 311 311 312 312 315 317 316 316 316 316 315 315 318 318 314 315 318 317 316 318 318 316 317 317 316 314 314 315 314 316 319 318 320 321 317 315 314 315 318 318 318 318 318 320 320 322 322 317 318 321 319 318 317 318 319 319 318 316 316 317 316 316 318 318 318 317 318 319 318 318 317 316 317
312 312 313 314 315 316 316 317 319 316 311 311 312 310 310 311 311 313 315 316 316 316 316 316 317 316 315 317 318 316 316 318 318 317 318 318 317 317 317 317 315 314 315 313 315 321 320 320 319 318 317 315 313 315 316 315 317 321 322 320 320 321 319 318 318 319 319 318 317 317 315 314 314 316 319 318 317 317 318 319 318 317 318 318 318 317 316 316
313 313 312 312 312 313 314 316 318 314 310 312 313 311 311 311 311 313 315 316 315 315 316 316 317 316 316 317 316 316 316 317 317 317 317 317 317 317 316 317 317 314 314 314 315 319 319 318 317 316 317 316 312 314 317 315 315 319 321 318 318 321 322 319 316 317 318 316 316 317 315 314 314 315 317 318 319 320 318 319 320 317 317 317 317 317 316 317
313 313 313 312 310 310 311 314 315 312 310 311 312 312 313 312 312 313 315 316 316 315 315 316 317 316 316 317 316 316 315 315 316 316 317 316 316 317 315 316 318 316 314 314 315 318 317 316 318 315 314 316 315 316 319 318 316 316 317 318 320 321 322 322 318 317 318 316 315 316 315 315 315 316 316 317 320 320 318 318 320 317 316 317 317 317 317 318
311 312 313 313 311 310 309 312 314 311 310 311 310 312 315 316 316 317 317 317 317 316 315 316 317 316 317 317 317 316 315 315 317 316 316 316 316 317 316 315 318 317 315 315 315 318 317 315 317 315 313 316 317 316 316 317 317 317 317 319 320 319 319 322 321 318 319 318 316 317 316 315 316 317 318 318 319 320 319 319 319 316 316 318 318 317 318 319
310 311 312 313 313 311 309 312 312 308 308 310 308 309 313 316 317 318 317 317 318 319 317 317 318 316 317 318 317 316 315 315 317 316 315 315 315 316 316 315 317 318 317 317 316 317 316 314 317 318 316 317 317 316 315 317 317 315 315 316 318 318 318 320 319 318 319 319 319 319 317 315 317 318 318 319 321 321 319 319 319 318 317 318 318 318 319 320
309 310 311 312 313 312 311 313 309 304 306 309 308 308 310 312 314 317 318 316 317 318 318 320 321 318 317 317 317 317 316 315 317 317 316 315 315 316 317 316 316 316 316 316 316 315 315 314 317 318 318 318 318 317 317 318 319 318 316 316 316 316 317 318 319 320 322 320 318 319 318 316 319 324 323 321 323 321 318 318 319 319 319 319 319 320 321 320
309 310 311 311 313 313 313 312 307 305 306 307 307 307 307 309 312 315 316 316 317 319 318 319 321 320 319 318 317 317 316 315 317 317 316 316 315 316 316 315 315 315 315 316 317 315 314 315 317 316 317 319 318 317 316 316 318 319 320 319 317 316 317 318 320 323 324 323 319 320 319 316 321 331 325 319 320 319 318 320 319 319 319 319 319 321 320 320
307 308 309 310 312 313 313 312 309 307 307 306 307 308 308 308 310 312 314 315 316 318 319 318 319 320 322 322 320 319 316 315 317 317 317 317 317 317 316 315 316 316 315 316 317 315 315 317 318 317 317 319 319 319 318 317 317 318 319 320 319 319 320 319 319 320 321 322 321 320 318 315 322 331 323 317 321 319 317 319 318 318 318 318 320 320 319 319
306 306 307 309 311 312 312 312 311 309 307 307 307 308 308 308 308 309 312 313 314 316 318 318 318 319 322 322 322 322 319 316 317 317 317 318 320 319 316 316 317 315 315 316 314 314 317 317 317 316 316 317 318 320 321 319 317 317 318 320 319 321 322 320 320 320 318 319 319 319 318 315 319 325 321 319 323 321 317 318 318 318 318 319 320 320 318 318
305 304 306 308 310 312 312 312 311 310 308 308 308 308 308 309 309 309 310 312 313 314 316 316 316 317 320 320 320 320 320 319 319 319 318 319 322 320 317 317 317 315 316 317 313 315 320 318 314 315 316 315 315 320 323 320 318 317 318 319 319 319 321 320 320 320 318 317 317 317 317 316 316 318 319 321 323 323 320 317 317 317 318 318 319 319 319 318
304 304 305 307 308 310 311 311 311 311 310 309 309 309 309 309 310 310 310 311 312 313 313 315 315 316 318 319 319 320 320 319 320 320 319 320 322 319 315 317 318 316 316 315 313 319 324 320 315 316 316 314 316 321 323 318 317 317 317 317 317 318 319 320 319 318 317 317 317 316 317 318 316 315 317 319 321 323 321 316 316 318 318 318 318 318 318 318
304 304 304 306 307 308 309 310 311 312 311 310 310 310 310 309 310 311 311 311 312 313 313 313 314 315 316 317 319 319 319 318 318 318 318 321 321 319 316 317 316 314 316 315 314 318 322 319 317 318 317 316 316 320 321 319 318 318 316 316 317 317 318 319 318 317 317 317 317 316 317 318 316 314 316 317 318 319 318 317 317 318 317 318 318 317 318 318
303 304 304 305 306 307 308 309 311 311 311 311 311 311 311 310 310 312 312 311 311 313 313 313 313 313 314 315 317 318 318 318 318 317 317 319 320 319 319 320 316 312 314 317 315 315 317 318 317 317 318 318 317 318 320 320 319 319 318 317 317 316 317 318 317 316 317 317 317 316 317 317 316 315 316 317 316 316 316 317 318 318 318 318 318 318 318 318
302 303 304 305 306 307 308 309 310 311 311 311 311 311 311 311 311 311 312 311 311 312 313 313 313 313 313 314 316 317 317 317 318 318 317 318 319 318 318 319 318 314 312 315 316 313 313 318 319 317 316 317 318 318 319 319 319 320 320 319 318 317 316 316 316 316 317 317 316 317 317 317 315 315 315 315 316 316 316 317 317 317 317 318 318 318 318 318
302 302 304 306 306 306 307 308 310 311 311 310 310 311 311 312 312 312 313 312 311 312 313 313 313 313 314 314 315 316 316 316 317 317 317 317 317 317 318 316 317 317 314 313 315 313 313 317 319 318 316 316 316 317 317 317 319 320 320 319 319 318 318 317 317 317 316 317 317 317 317 316 315 315 315 315 315 315 315 315 316 317 317 318 318 318 318 318
301 302 303 304 305 306 306 307 308 310 310 310 310 310 311 312 312 312 313 313 312 312 312 312 312 313 314 315 314 315 314 315 316 315 315 316 316 315 316 314 314 317 315 313 314 314 314 315 316 316 316 316 316 318 318 318 318 319 318 317 317 317 318 319 319 318 317 316 317 317 317 316 315 315 316 316 316 315 315 316 316 317 317 317 318 318 318 318
Wind_Speed
20 20 20 19 19 19 19 19 19 18 18 16 15 15 14 13 12 12 12 12 12 11 12 12 12 12 11 11 11 9 8 8 7 8 8 8 9 9 8 8 8 7 7 6 6 5 4 4 2 4 3 3 4 3 5 5 5 2 0 2 4 3 2 1 2 4 5 7 7 12 14 9 6 8 6 4 4 4 4 6 6 5 8 8 5 6 6 7
22 21 21 21 20 20 20 19 19 19 18 17 16 15 14 13 13 12 12 12 12 12 12 12 12 11 11 11 10 9 8 7 7 8 8 8 9 10 8 8 7 7 7 6 7 6 3 1 3 5 4 5 4 3 3 4 5 2 1 3 3 0 3 6 8 7 5 6 10 12 12 8 8 11 9 4 6 9 6 6 9 8 8 11 10 8 7 8
23 22 22 22 22 21 20 19 19 19 18 17 16 15 14 14 13 12 12 12 12 12 12 11 12 11 12 11 10 9 7 6 7 8 10 9 9 9 8 8 7 6 6 7 8 6 4 3 4 6 5 5 5 4 5 4 5 2 1 1 1 2 5 11 13 9 7 5 10 12 9 6 9 10 9 6 6 10 9 9 12 13 13 13 13 12 11 10
23 23 22 22 22 22 21 20 19 18 18 17 16 16 15 14 13 12 12 12 12 12 12 11 11 12 12 11 10 8 6 4 6 10 10 9 9 9 8 7 6 6 5 6 6 7 7 4 4 6 5 5 6 6 6 5 4 2 1 1 3 3 4 8 10 7 5 4 7 11 6 5 8 8 8 7 4 6 9 11 12 14 17 16 15 14 14 13
24 24 23 23 23 22 21 20 19 18 18 18 17 16 15 14 13 12 12 12 12 12 12 11 11 12 12 11 10 8 7 2 5 11 10 10 11 9 9 7 7 6 6 6 5 6 7 5 4 5 6 3 7 5 5 7 5 1 2 4 5 6 4 4 5 7 6 4 7 10 5 5 9 6 7 7 4 3 3 6 8 8 11 14 15 14 14 14
24 24 24 23 23 23 22 21 20 19 18 18 17 16 15 14 13 13 12 12 12 12 12 12 11 12 12 12 11 11 9 1 2 11 11 11 11 10 9 8 8 7 6 7 6 5 6 5 5 6 6 4 7 5 4 8 6 0 2 6 7 6 5 3 3 6 6 4 5 5 3 6 7 4 7 11 10 4 3 2 4 2 2 6 10 10 11 12
23 24 24 24 24 24 23 22 21 20 19 18 17 17 16 15 14 13 13 12 12 12 12 12 12 12 12 12 11 11 12 6 4 9 13 12 11 10 10 9 9 8 7 6 5 3 4 6 8 8 7 3 7 6 4 6 6 2 1 5 5 7 7 3 3 6 5 4 2 3 3 3 3 2 5 11 14 10 6 8 6 3 1 3 6 8 8 10
23 23 24 24 24 24 24 23 22 21 20 18 17 17 16 15 14 14 13 12 12 12 12 12 12 12 12 13 11 9 12 10 5 6 13 12 11 11 10 10 9 8 8 7 6 4 4 7 9 8 4 1 4 6 5 5 4 3 2 6 4 7 6 4 5 5 3 2 1 2 0 1 3 2 5 10 14 13 12 13 13 11 8 6 8 9 10 11
23 23 23 24 24 25 25 24 23 22 20 19 18 17 16 15 15 14 13 13 13 13 13 13 12 12 13 13 10 6 9 12 6 6 12 12 11 11 10 9 8 8 7 7 8 6 5 6 7 6 1 2 4 5 4 3 1 0 6 9 7 7 6 6 6 4 3 1 1 1 2 3 3 3 8 14 17 15 12 13 15 16 14 12 12 13 14 14
23 23 23 24 24 25 26 25 24 23 21 19 18 17 16 15 15 14 14 13 13 13 13 13 13 13 13 12 9 4 6 11 8 8 12 12 12 11 10 8 7 8 4 6 8 7 6 3 2 4 0 2 5 4 2 1 1 3 9 10 9 8 6 5 5 5 4 3 2 1 3 3 5 2 6 9 9 12 14 14 15 16 17 16 15 16 16 17
22 23 23 24 24 25 26 26 25 23 21 20 19 18 17 15 15 14 13 13 13 14 14 14 13 13 14 12 9 5 5 9 9 10 13 12 12 10 8 6 6 8 5 5 9 9 8 4 2 3 1 3 6 4 4 4 2 5 9 9 8 7 6 5 5 7 5 2 2 1 5 4 5 4 10 10 5 7 13 14 15 17 17 17 17 17 18 18
21 20 21 21 22 22 23 23 23 23 21 19 18 17 16 15 14 14 13 13 14 14 14 14 14 14 13 12 11 8 6 10 9 11 14 12 11 9 6 6 5 8 7 5 9 10 8 6 5 2 2 4 5 4 4 5 4 5 6 4 6 6 4 8 7 8 6 2 3 1 4 7 6 9 17 14 11 9 9 11 12 14 13 12 15 17 18 19
20 18 18 20 21 21 21 21 21 21 19 18 16 15 15 14 14 13 13 13 13 14 14 14 14 15 13 9 11 9 6 10 11 11 14 12 10 8 6 6 5 6 7 5 7 9 8 7 7 4 3 3 4 5 5 5 4 4 4 0 4 3 4 9 9 7 6 4 4 1 1 6 5 15 17 10 14 13 10 12 12 12 11 11 13 15 18 20
20 18 19 20 20 20 20 19 19 18 17 16 15 15 14 14 13 13 13 13 14 14 14 14 14 16 13 6 7 10 8 9 12 13 14 12 10 8 6 6 5 5 5 4 6 8 8 9 8 4 4 5 7 8 5 4 3 2 2 1 2 2 2 6 8 8 5 4 5 2 1 7 4 5 10 10 12 13 12 14 13 13 13 13 14 15 18 20
21 20 21 21 20 20 20 19 17 16 15 14 14 14 13 13 13 13 13 13 14 14 14 15 15 14 10 5 5 9 10 11 13 14 14 13 9 7 7 6 5 5 5 4 7 7 8 9 7 5 6 6 8 7 3 3 2 1 2 2 3 2 1 2 4 7 4 2 7 4 2 8 4 4 8 9 11 10 12 13 13 13 14 14 16 16 18 18
22 21 21 21 20 20 19 18 17 15 14 13 13 12 12 12 12 13 13 13 14 14 14 13 16 13 5 5 7 9 12 14 15 15 15 13 10 7 7 6 5 6 6 6 6 8 10 8 5 6 7 5 4 3 3 3 2 2 3 3 3 3 3 2 2 2 4 4 5 5 3 4 3 6 7 7 8 10 11 12 12 13 13 14 15 16 18 18
21 21 22 22 21 20 20 18 16 15 14 13 12 11 11 10 11 12 12 13 13 13 14 10 12 13 5 4 8 11 15 15 15 16 15 14 11 8 7 6 6 6 7 7 7 8 7 6 6 5 3 2 4 3 3 2 3 3 3 3 2 2 3 3 1 1 5 2 3 5 4 6 7 6 6 6 7 10 12 14 14 13 14 15 15 17 18 19
20 21 23 24 23 21 20 18 17 16 14 13 12 11 11 10 11 12 12 13 13 12 12 9 10 8 6 8 8 11 17 16 15 17 16 16 12 10 9 5 6 7 6 6 6 5 4 4 4 1 1 2 4 4 4 3 2 3 4 3 3 2 4 2 1 4 6 1 3 4 5 8 10 13 15 14 12 13 15 16 17 17 18 19 19 20 21 22
20 21 23 25 24 22 20 19 18 17 16 14 13 13 12 12 11 11 13 14 14 9 5 11 15 4 2 12 14 12 18 16 15 16 17 17 14 13 10 6 7 7 5 4 3 3 3 3 1 0 3 4 4 4 4 0 3 2 1 1 2 2 2 2 4 3 4 2 4 6 7 8 9 10 15 18 18 17 19 19 19 20 21 22 22 23 24 25
20 21 22 24 24 24 22 21 20 19 18 16 17 16 12 12 8 7 12 15 16 7 1 12 19 4 2 14 20 16 16 15 14 16 17 18 15 12 9 8 7 5 3 4 3 3 3 2 2 3 4 5 6 7 2 4 5 4 3 2 2 2 2 3 4 1 2 1 5 7 7 9 9 8 11 17 18 17 18 19 20 21 22 23 23 25 26 28
20 20 21 23 24 25 24 24 22 21 21 19 22 18 10 13 8 4 11 13 16 10 1 10 16 5 2 10 18 17 14 13 13 17 17 17 17 12 8 9 6 4 4 3 6 2 2 1 4 6 3 1 2 3 4 5 4 3 3 3 2 1 1 4 3 1 4 3 4 6 7 9 9 8 11 15 14 16 20 19 22 24 23 24 25 26 28 27
19 19 21 23 24 24 24 25 23 23 23 22 25 19 9 16 11 6 12 8 13 17 9 8 10 6 5 7 15 16 12 10 8 14 18 18 18 11 10 9 4 4 4 5 6 3 2 2 6 5 4 6 6 5 6 4 3 3 1 1 2 2 1 4 3 1 2 1 4 6 7 10 11 9 11 16 15 20 28 25 23 24 22 22 23 24 25 24
18 20 22 23 23 24 24 25 24 25 26 24 26 19 10 17 12 7 14 5 7 19 17 10 7 7 8 7 15 15 10 9 8 13 19 20 18 11 10 10 5 4 6 5 4 3 2 4 5 4 7 6 4 4 4 2 1 1 2 1 1 2 2 1 1 1 3 2 3 6 6 9 12 10 10 19 25 27 31 28 23 22 22 23 24 24 23 22
17 20 22 23 23 24 23 25 25 25 26 25 26 21 12 15 12 9 13 3 0 12 17 15 8 8 10 7 13 15 9 8 9 14 21 21 16 11 9 9 7 5 5 7 7 6 3 1 2 7 5 3 4 3 3 2 2 4 5 3 4 2 2 2 2 1 4 0 3 6 6 6 8 8 7 12 19 21 25 24 21 24 26 27 28 27 25 24
17 20 22 24 24 24 24 24 25 25 26 26 26 20 13 15 12 10 11 3 1 6 11 15 11 9 12 10 12 13 6 5 6 12 23 22 15 9 6 9 9 5 7 9 7 6 3 0 2 6 3 2 4 3 4 4 2 3 4 3 4 4 3 4 4 3 2 2 2 2 4 5 4 4 6 4 5 9 12 14 18 24 26 27 27 25 24 23
13 17 21 24 24 25 23 19 22 25 25 26 25 19 13 14 13 11 9 1 2 5 6 11 12 9 13 12 13 11 3 4 7 11 23 23 15 10 5 6 4 2 6 7 3 2 2 1 1 5 6 4 3 2 4 6 2 2 3 3 2 2 5 5 4 3 1 3 3 2 1 6 5 5 9 7 6 8 7 8 16 24 24 23 23 20 18 16
8 10 15 20 24 25 20 16 21 25 22 22 23 19 14 14 13 11 7 1 3 7 7 8 9 9 11 12 17 11 2 8 12 10 20 22 15 10 6 3 3 2 2 2 2 0 3 3 2 4 5 4 3 2 3 7 3 2 3 4 2 5 6 3 3 1 2 3 3 5 4 5 7 7 10 11 11 10 7 8 12 19 21 19 17 15 12 10
8 8 9 14 20 23 21 18 21 24 21 19 21 19 15 14 13 10 5 1 3 7 6 7 8 10 12 15 19 10 6 12 9 7 20 21 14 9 5 3 5 5 2 3 3 1 2 5 5 5 4 3 4 1 1 7 4 2 3 2 3 6 4 3 3 1 2 4 4 5 5 2 7 6 7 10 10 8 9 9 9 16 18 14 11 10 11 10
12 10 8 8 10 17 21 19 19 24 23 18 19 19 15 14 12 6 1 2 4 5 4 8 10 10 13 15 16 10 8 7 2 7 19 18 13 8 3 4 4 5 7 5 3 1 2 2 2 4 5 3 3 4 3 2 3 4 4 3 6 5 4 3 2 2 3 3 4 6 6 3 8 7 5 7 7 7 9 8 9 14 13 9 9 9 9 8
16 14 11 9 11 16 21 20 18 23 24 17 18 19 16 12 7 3 3 3 2 3 5 8 9 11 15 11 8 8 7 3 4 12 13 10 11 6 2 3 3 2 5 2 1 2 2 2 2 2 3 3 6 5 6 4 5 6 4 4 5 3 4 3 1 4 3 4 3 8 11 4 5 6 3 4 6 8 7 6 8 8 8 9 9 7 7 7
19 19 16 15 14 14 16 17 15 19 22 17 18 20 15 7 2 3 5 1 1 3 4 5 6 12 16 11 6 7 6 4 8 12 7 4 7 3 2 3 1 3 2 1 1 2 2 2 1 2 3 6 7 5 7 6 3 4 3 4 3 2 4 4 2 4 1 5 2 4 10 7 5 5 3 2 5 9 9 7 7 6 8 8 7 6 6 6
15 19 21 20 16 13 13 12 10 15 20 19 20 21 12 3 2 5 4 2 1 4 5 6 8 10 12 10 7 8 7 6 8 10 6 5 5 5 5 5 4 3 0 3 2 1 1 2 3 3 2 5 5 4 5 5 3 1 3 6 4 1 2 1 1 1 3 5 4 3 2 5 9 6 2 1 3 6 8 7 3 3 3 4 5 6 8 9
12 16 22 24 21 18 14 8 6 12 18 21 22 15 5 2 5 6 6 3 1 3 6 9 9 10 11 9 6 8 6 5 8 8 6 6 5 6 7 6 8 5 2 5 4 1 0 1 3 4 1 6 6 4 3 1 2 4 5 6 5 3 2 3 3 2 4 4 4 4 2 3 8 6 5 6 7 10 13 12 6 4 7 9 8 10 12 12
12 14 20 24 24 22 17 10 7 9 16 23 19 8 3 5 6 8 10 6 2 1 5 9 10 10 11 8 6 9 5 3 8 7 5 6 4 5 6 7 10 6 1 4 4 6 4 4 4 5 4 9 8 5 7 5 4 6 4 4 5 5 4 4 3 3 4 2 3 3 1 3 3 3 5 2 3 10 14 15 12 12 16 16 12 14 17 18
12 12 14 19 24 24 21 19 13 10 18 23 13 4 7 7 6 9 9 5 3 2 5 8 10 9 8 4 4 7 3 2 9 7 5 7 6 6 7 7 10 8 4 4 2 5 6 5 4 4 7 14 10 7 7 7 3 4 2 2 5 4 3 2 2 3 2 1 2 2 3 5 3 6 7 2 3 7 12 17 18 17 19 18 16 18 20 21
14 12 12 16 23 24 24 26 20 14 21 21 9 5 9 8 6 6 5 4 5 6 8 7 6 6 6 3 2 4 1 2 8 5 3 6 5 7 7 6 11 11 8 6 2 3 4 3 2 2 5 11 7 4 5 5 3 3 2 4 4 1 2 2 2 1 4 2 4 3 5 6 3 8 11 10 11 10 10 14 17 17 19 18 21 23 23 23
14 15 14 17 21 21 23 29 26 20 20 14 8 9 9 8 6 3 3 7 11 12 10 6 4 5 7 4 3 6 3 2 7 5 3 4 4 8 9 7 11 14 12 10 4 1 5 2 3 1 2 2 1 2 1 2 3 4 4 4 1 3 2 2 1 2 1 5 4 4 7 7 4 6 5 5 9 10 8 9 12 16 18 20 25 28 26 25
13 15 17 19 21 19 21 28 29 25 18 6 8 12 8 7 9 5 2 9 13 12 8 5 5 5 7 6 5 8 7 5 7 6 5 5 4 9 12 8 10 17 19 16 6 1 5 3 3 2 1 2 3 2 0 2 3 4 2 2 2 1 1 2 2 2 3 5 5 4 7 6 7 8 5 2 6 9 9 9 10 13 17 22 26 26 25 23
11 10 15 20 22 20 18 23 25 23 15 7 10 11 6 6 11 9 4 6 11 10 7 7 6 4 7 8 7 9 9 8 9 6 5 5 4 9 15 10 9 16 21 18 7 1 3 3 3 3 4 1 2 1 5 2 3 3 3 3 2 3 3 4 3 3 3 4 5 6 6 6 7 7 6 8 9 9 10 10 9 11 17 22 23 22 21 20
9 4 5 13 19 19 17 19 20 16 7 6 9 5 2 2 5 6 5 3 5 5 6 7 8 6 7 7 7 8 8 7 9 7 5 6 5 6 12 12 7 10 16 16 8 2 2 3 3 2 5 1 2 5 8 7 5 2 1 2 2 1 2 1 1 2 3 3 4 4 7 9 6 5 7 9 9 10 12 10 8 12 19 21 20 19 19 18
9 4 3 9 16 20 20 16 12 7 2 3 4 3 3 4 2 4 4 2 1 1 1 5 7 7 6 6 6 7 7 6 7 6 4 7 7 4 9 15 10 8 10 8 6 5 3 3 5 2 1 4 5 6 8 9 10 9 7 8 8 6 4 2 4 3 2 2 4 3 7 12 5 4 5 4 2 6 11 11 9 14 19 18 15 16 17 16
8 4 2 7 16 23 24 13 4 4 2 3 3 2 3 6 4 3 4 3 1 2 2 1 3 5 7 8 7 7 7 5 7 7 5 9 11 6 10 19 20 17 12 7 9 12 6 3 4 4 4 5 3 3 4 4 4 5 6 6 7 7 6 5 5 4 2 2 4 2 6 13 4 5 3 3 5 3 9 13 12 14 16 12 11 14 15 15
9 7 3 4 14 25 22 8 3 4 2 3 4 4 5 5 5 4 4 3 1 1 1 1 1 3 5 6 8 9 9 6 8 10 8 9 10 9 13 22 22 18 12 5 5 8 5 2 2 3 1 1 2 2 1 2 2 2 5 2 3 5 6 6 5 3 3 4 4 3 7 12 4 5 3 4 7 6 7 9 9 8 7 9 14 17 15 13
10 9 6 4 10 21 18 4 3 5 2 4 5 6 8 7 6 5 3 1 1 1 0 2 1 1 1 1 3 8 11 8 8 11 9 6 7 9 17 25 22 14 9 8 8 9 6 3 4 4 2 1 1 2 3 2 1 2 3 3 4 5 5 4 3 1 2 7 9 6 7 12 5 5 4 2 4 4 8 9 7 7 10 13 16 17 14 11
8 9 9 7 11 19 17 6 4 5 5 7 5 5 7 6 10 14 9 3 1 1 0 1 1 3 2 2 3 1 7 9 8 8 9 7 3 3 12 23 24 15 10 13 18 16 8 5 6 6 6 7 6 4 4 3 2 2 4 6 8 8 8 6 3 3 6 11 11 7 8 14 7 4 5 2 2 6 10 11 10 13 15 16 15 16 15 10
7 6 5 7 14 19 19 14 8 5 6 8 4 5 9 5 7 16 16 8 5 5 2 2 1 3 2 2 1 2 3 5 5 5 7 8 3 2 3 13 19 16 10 12 20 16 3 3 9 10 10 12 9 5 6 8 7 6 9 10 10 11 12 8 4 6 10 10 9 10 11 17 16 6 2 5 5 6 8 10 12 15 17 17 18 18 14 8
6 5 5 5 8 12 12 14 13 6 7 10 6 5 11 10 4 8 14 12 11 10 5 2 2 1 0 4 6 4 2 2 3 4 6 6 1 3 1 2 7 11 10 10 15 12 3 3 11 13 14 15 10 5 8 12 12 13 14 14 13 14 14 11 10 14 12 7 10 14 11 14 22 16 8 9 9 6 7 10 14 17 17 18 20 19 15 11
8 6 10 9 5 5 6 10 13 10 9 11 7 4 9 12 9 7 10 12 11 11 8 3 5 8 6 4 4 4 4 3 3 4 5 3 3 3 2 3 2 4 5 5 7 6 3 4 8 11 13 15 12 7 8 10 10 11 13 14 15 16 15 15 18 20 15 9 12 15 11 13 22 18 9 10 12 10 12 17 18 18 17 17 18 19 18 16
12 8 11 13 7 4 8 12 13 12 11 10 7 6 9 12 13 10 7 6 6 9 10 6 8 13 12 9 5 3 5 5 5 6 3 2 3 3 2 1 2 0 2 3 2 2 3 5 7 7 9 12 13 11 9 9 8 7 11 13 15 17 19 20 22 22 18 14 15 18 17 17 21 17 8 11 17 17 17 18 16 15 15 15 17 20 21 23
15 9 8 10 8 5 6 10 11 10 10 10 8 8 9 12 14 11 8 9 7 7 11 12 12 12 13 12 9 8 8 7 7 7 4 3 2 2 3 2 0 1 1 2 0 0 2 5 4 4 5 9 13 13 9 8 8 8 9 11 14 18 20 20 19 16 14 15 17 20 20 17 19 18 13 18 22 18 17 19 20 21 19 16 18 22 24 26
20 13 8 5 5 6 5 4 6 7 7 9 8 8 9 12 14 11 9 14 13 8 11 17 15 9 9 11 10 11 12 11 11 10 4 4 3 2 1 2 3 3 2 1 1 1 3 3 0 2 4 10 14 13 8 5 6 8 12 15 17 17 15 14 13 12 14 16 16 16 15 15 18 15 12 17 19 15 17 22 23 24 23 20 22 27 27 27
25 19 12 5 4 7 7 3 4 6 6 8 10 10 10 11 13 10 7 12 18 17 17 18 14 7 6 9 14 20 24 22 19 15 6 2 3 2 2 2 4 5 4 3 2 1 3 2 2 3 4 11 14 9 2 2 3 9 15 19 19 16 13 10 11 15 17 15 12 12 13 15 17 12 9 13 14 12 18 24 25 25 23 21 25 28 29 28
Wind_Direction
181 184 185 188 192 192 193 189 182 180 182 184 186 188 190 193 198 201 206 206 208 209 210 209 206 205 199 194 191 189 190 194 199 187 187 191 202 217 216 203 194 189 179 168 158 136 119 114 147 163 141 169 175 184 192 208 206 186 234 208 245 221 145 190 106 102 141 137 147 163 168 160 147 169 185 185 177 169 150 163 191 205 213 226 199 179 195 194
184 186 185 188 192 192 194 192 186 181 181 184 186 189 191 194 199 202 207 208 209 210 211 210 206 203 197 194 190 189 191 197 199 191 203 211 207 212 207 197 192 187 177 167 150 123 110 171 197 178 174 191 171 172 179 195 203 201 241 224 257 115 44 28 61 58 64 128 153 163 182 175 147 163 170 182 191 186 183 183 194 200 213 228 225 218 211 195
187 188 187 189 192 192 194 194 189 184 183 184 187 190 192 195 200 203 208 210 211 211 211 210 206 202 197 194 189 189 189 198 211 210 218 219 204 201 195 192 189 182 177 175 159 155 210 209 195 202 204 195 172 171 169 184 204 212 259 214 307 84 56 43 65 65 42 94 142 152 183 163 131 151 165 196 198 184 198 197 187 191 206 224 226 223 219 206
190 189 189 191 193 192 193 194 192 188 185 186 188 190 193 196 200 204 209 211 212 212 210 208 205 200 197 193 187 185 184 207 228 218 217 211 197 195 193 187 181 177 173 178 168 177 192 169 186 208 227 210 162 172 179 180 190 180 211 125 349 358 53 49 64 80 76 81 116 132 165 154 133 148 167 192 214 196 207 208 203 203 207 217 221 218 217 216
191 189 190 193 195 193 192 194 193 191 189 188 189 191 193 196 200 205 209 212 213 213 210 206 203 199 196 193 186 180 179 194 218 209 211 203 194 194 191 180 175 170 163 167 151 163 172 166 203 212 246 219 146 179 183 170 186 147 106 87 26 2 50 64 71 94 98 94 111 125 148 149 146 166 185 196 222 194 158 182 201 207 206 209 213 214 212 216
195 189 192 194 196 195 193 194 193 193 193 191 192 193 194 196 199 204 208 213 213 213 210 203 200 198 196 192 188 185 189 246 229 201 201 197 193 192 188 182 178 166 162 163 140 153 167 177 206 207 238 221 161 182 139 160 194 231 91 82 47 34 80 88 104 110 97 99 116 121 126 131 144 200 215 214 224 204 81 106 178 177 189 192 202 210 212 219
203 194 194 195 196 196 194 193 194 195 195 194 194 194 195 196 199 204 208 212 213 213 209 202 199 199 196 192 193 199 210 264 296 205 194 191 192 192 190 188 184 175 167 149 131 164 178 192 209 213 232 223 175 170 120 159 186 223 114 94 64 69 92 104 146 142 108 86 81 82 93 126 162 226 223 220 225 227 255 275 269 265 231 185 208 222 230 238
211 202 199 197 196 197 194 194 195 196 196 195 196 196 197 199 201 204 207 211 212 211 206 201 199 198 197 193 196 214 227 245 282 208 191 190 190 191 193 191 189 187 179 159 156 190 208 211 216 222 238 186 163 154 145 166 182 252 118 113 99 84 95 106 132 154 125 74 51 104 88 231 205 263 265 239 232 233 245 257 263 261 247 229 235 246 248 248
216 207 204 200 197 198 195 194 195 196 197 196 197 199 200 201 204 206 208 210 209 208 203 201 200 198 196 195 198 228 236 229 242 208 191 189 188 190 194 194 194 191 193 183 176 184 200 219 224 224 255 82 138 136 149 170 168 259 107 120 121 103 109 111 115 128 116 104 102 160 238 210 194 281 275 256 248 241 239 243 250 256 251 242 241 249 252 251
218 208 205 201 199 200 198 194 195 196 196 197 198 200 202 204 207 208 209 210 208 204 200 200 200 196 195 196 202 234 234 217 219 204 191 190 187 188 189 190 196 184 189 205 190 190 203 233 222 198 234 88 126 112 108 117 84 99 106 113 117 117 128 129 129 129 114 109 120 268 278 202 163 196 261 255 252 233 226 231 238 247 251 251 249 249 251 251
220 207 205 202 201 204 201 197 195 195 196 198 200 201 203 204 207 210 213 212 207 200 197 200 198 195 194 194 206 235 229 210 207 197 190 189 184 183 181 178 190 174 165 214 200 196 208 220 173 168 202 141 122 95 92 109 109 124 118 108 120 135 140 155 153 153 157 112 127 292 304 264 144 165 247 232 212 209 214 224 232 242 250 251 249 247 248 248
220 209 208 205 204 205 205 201 197 196 198 200 203 203 204 206 208 211 214 211 206 199 196 199 195 193 193 197 217 242 232 203 192 188 186 184 179 177 174 165 177 171 161 202 204 194 205 198 168 137 159 153 130 114 109 118 116 141 147 123 146 154 161 185 174 172 191 131 127 107 306 267 181 215 251 234 219 216 208 219 222 234 248 247 242 238 241 246
217 210 209 206 205 205 205 204 200 200 201 204 207 207 206 207 209 211 213 210 205 199 197 198 195 192 190 201 224 236 228 195 180 177 177 173 170 168 166 154 153 166 163 184 196 187 193 180 156 133 136 110 102 124 113 117 123 156 196 241 154 175 202 188 166 168 185 118 133 110 310 269 218 225 241 224 218 220 211 224 225 232 244 247 244 235 237 244
209 205 202 200 203 204 203 202 201 202 202 205 208 209 210 209 210 211 210 207 202 199 198 195 192 191 194 211 227 219 212 193 179 173 172 170 164 159 155 149 142 151 152 159 171 172 179 172 160 143 109 81 107 122 106 116 145 151 164 300 200 207 193 167 151 161 176 130 155 130 218 269 303 212 206 190 205 214 217 231 237 239 239 242 245 240 240 245
202 198 194 194 197 199 201 200 199 200 201 205 208 209 211 210 212 209 206 206 201 198 195 193 191 189 200 224 220 207 196 190 185 175 175 172 158 153 154 147 142 135 120 132 154 155 156 160 161 134 100 102 125 131 125 149 206 165 135 257 228 212 180 148 156 167 167 148 173 161 202 259 282 127 162 186 198 207 223 237 241 240 237 236 238 242 247 251
197 191 187 189 191 194 195 196 197 198 200 203 205 207 209 210 210 205 204 202 197 195 190 192 194 189 199 217 201 193 182 186 188 178 178 172 155 158 157 140 134 129 117 122 139 144 144 141 130 124 117 122 151 173 159 149 225 196 176 237 204 186 186 175 274 183 133 123 181 206 254 276 246 159 168 191 203 212 229 244 245 240 238 236 235 241 250 254
193 186 182 183 186 188 189 192 192 193 196 197 198 198 198 202 201 200 198 194 192 189 184 183 193 199 228 223 192 187 184 185 186 181 178 173 161 153 145 135 133 124 119 119 121 130 134 129 122 126 134 174 218 201 152 176 231 195 189 243 214 175 188 171 311 209 150 147 224 213 232 269 274 261 239 217 215 220 228 241 244 239 238 238 239 240 246 251
189 183 181 180 182 183 183 184 183 186 188 186 185 183 184 185 187 189 185 184 180 173 179 174 173 195 238 213 188 186 192 188 183 184 179 176 167 149 141 139 136 124 126 128 122 129 126 132 138 138 168 215 236 191 168 201 224 184 181 215 214 212 240 209 116 174 168 170 263 215 224 249 264 276 272 262 247 231 230 240 243 243 245 247 247 245 245 248
187 183 181 180 179 179 178 177 177 179 177 174 173 171 172 170 173 179 176 177 170 159 189 184 175 180 274 193 186 186 193 189 179 179 177 177 173 161 153 143 150 150 153 159 147 156 145 126 120 289 184 202 225 203 202 157 39 30 124 170 234 243 255 154 103 165 170 147 235 231 240 246 251 262 267 266 259 242 237 243 245 246 248 249 248 247 246 246
184 179 179 178 176 175 173 173 174 175 172 170 165 161 161 160 158 172 178 181 180 175 330 183 186 207 52 174 180 178 180 177 172 174 177 180 174 163 155 148 162 189 208 180 154 169 163 137 185 214 209 209 209 206 199 55 44 13 19 8 324 355 14 90 92 38 23 25 236 235 246 253 256 255 259 265 266 258 250 249 249 248 246 245 245 248 249 250
180 177 175 174 174 173 172 171 173 174 173 172 166 158 159 171 165 164 178 191 200 210 268 174 186 200 129 174 179 168 158 157 170 181 180 174 167 158 162 163 161 209 226 133 101 120 148 150 224 216 203 105 167 165 78 50 37 22 4 356 344 303 75 73 82 18 38 43 265 274 277 268 261 257 260 261 261 260 254 248 248 250 249 247 246 249 254 255
176 173 170 172 173 173 172 171 173 174 173 175 171 162 165 181 180 168 174 191 216 222 239 192 187 189 162 176 178 165 148 144 164 188 181 168 168 165 168 177 177 189 180 103 89 99 130 224 240 207 113 74 52 54 60 33 22 50 49 19 342 262 100 60 52 30 66 102 274 298 298 281 271 261 255 251 247 251 254 250 247 250 251 249 246 248 253 253
177 172 169 172 173 174 175 172 174 176 175 176 174 170 167 179 183 180 178 177 209 216 230 217 190 195 183 169 173 165 152 155 163 186 181 168 173 178 167 177 204 182 160 145 154 163 161 227 231 135 101 95 70 58 78 61 23 184 184 126 243 221 119 58 360 280 217 205 306 312 301 281 274 265 251 245 242 248 256 258 256 255 254 253 250 249 249 249
183 177 173 175 176 178 177 176 176 177 179 178 177 176 169 175 181 181 185 199 219 200 217 215 194 195 195 176 174 172 163 166 167 184 182 171 175 185 177 185 203 196 177 180 192 199 187 206 135 106 100 122 114 119 140 146 232 220 202 192 225 244 86 91 48 278 233 237 356 325 306 278 263 255 254 247 237 242 254 259 260 256 253 254 254 252 250 249
194 184 178 178 180 181 180 180 180 179 181 183 182 178 170 175 176 172 184 221 324 177 200 210 204 201 200 191 180 176 172 158 151 185 185 174 172 176 184 199 202 206 196 186 197 218 206 148 128 116 107 135 139 167 180 178 227 240 214 204 233 287 24 64 39 11 339 326 291 350 328 295 288 255 256 265 226 232 245 246 250 250 250 251 253 256 257 254
197 194 187 181 182 184 182 181 182 183 185 188 187 179 169 172 171 174 182 224 264 171 161 194 202 204 202 193 169 155 161 169 147 179 185 177 174 170 175 197 190 219 207 185 189 226 159 110 95 122 129 127 136 224 189 168 189 276 273 331 342 15 53 63 35 34 11 290 239 148 265 279 300 278 263 272 264 250 232 222 237 244 247 248 250 257 261 260
177 194 195 190 189 185 179 180 187 188 188 192 190 179 168 166 163 170 173 345 253 172 145 173 188 193 191 179 165 151 114 160 146 167 183 179 177 175 179 162 138 232 255 110 127 180 120 132 92 107 127 125 149 223 179 159 154 239 266 323 24 80 79 83 59 88 238 309 263 183 175 267 282 254 238 242 249 249 235 227 238 243 247 249 250 251 247 243
173 180 190 196 198 191 181 183 192 191 190 193 189 178 169 164 159 159 165 283 194 151 146 164 166 173 168 165 170 158 114 148 147 169 180 180 178 176 202 199 168 196 205 116 161 295 79 152 159 149 147 147 160 244 192 157 140 221 244 333 73 89 82 99 72 324 299 352 298 195 149 266 276 248 216 221 227 228 231 235 246 253 253 246 232 218 211 220
183 186 188 182 191 195 193 191 191 191 193 192 185 179 171 163 155 143 178 232 155 130 141 157 155 155 151 161 177 159 121 143 159 163 172 179 177 169 206 236 219 195 191 191 185 5 24 156 176 153 160 173 127 28 351 131 129 195 195 74 70 81 65 72 66 16 22 335 265 185 159 233 277 264 206 200 209 207 220 229 245 253 243 210 191 193 208 229
200 197 194 183 179 191 202 201 193 193 193 187 182 179 170 161 155 148 190 208 159 114 120 146 155 154 152 157 177 167 141 111 110 140 155 173 174 170 160 204 264 195 173 191 106 89 79 54 12 80 121 127 114 63 20 54 124 159 156 84 65 65 52 49 50 69 52 285 242 173 180 193 293 282 186 174 192 176 190 226 240 230 177 166 191 211 236 249
216 209 203 202 197 196 204 205 201 196 190 182 177 174 166 155 166 191 181 194 360 122 120 148 151 153 164 161 156 178 160 107 135 144 138 154 167 187 173 168 342 42 58 12 74 122 116 74 47 90 106 114 110 67 29 39 99 122 119 106 77 18 32 31 3 59 107 260 285 183 187 178 240 274 48 81 186 163 173 207 211 177 145 164 201 226 251 258
223 219 215 212 212 214 206 198 202 199 189 178 171 168 161 140 247 226 186 98 172 175 155 171 162 158 176 169 152 172 159 133 161 161 149 157 167 187 195 184 154 118 306 210 176 73 159 182 134 102 129 158 128 79 37 7 4 97 136 120 100 346 2 3 272 102 212 243 296 303 202 204 240 260 14 336 214 186 208 226 205 132 153 193 218 250 263 262
215 223 224 220 221 223 213 196 194 197 187 175 168 164 158 180 200 214 202 157 172 190 151 155 161 160 171 174 158 162 158 151 170 168 156 161 174 192 212 211 183 181 195 173 171 148 205 297 132 105 314 206 180 132 130 277 234 185 162 135 141 167 198 240 221 216 238 246 293 330 14 259 265 283 262 236 216 213 229 246 267 277 258 254 256 267 271 265
208 219 228 227 228 228 223 214 192 190 185 172 163 157 186 209 198 202 209 195 132 93 139 144 148 155 171 182 158 153 157 154 163 165 155 160 181 200 214 223 205 207 155 157 177 172 199 278 183 165 178 185 194 190 166 153 170 200 184 153 173 171 183 212 186 210 241 261 300 318 360 216 232 278 254 218 201 225 233 244 254 259 258 258 255 260 266 264
218 218 223 228 232 230 228 221 202 186 181 170 160 172 191 199 207 205 207 188 133 112 121 134 140 151 174 189 153 156 152 142 166 168 165 176 196 193 191 209 208 202 176 192 209 164 198 246 194 165 162 166 182 205 168 127 143 222 203 189 223 204 180 180 169 188 165 8 291 241 235 223 209 264 265 302 309 247 235 239 243 249 253 255 253 252 258 262
227 221 213 221 227 229 230 224 212 191 179 172 164 201 203 205 206 201 185 145 142 136 124 131 143 155 169 175 193 184 91 92 163 169 186 194 213 204 194 198 197 197 190 188 198 138 174 248 325 52 147 165 178 205 171 137 162 197 166 201 220 158 134 177 256 53 98 259 262 196 249 274 309 280 253 236 245 239 228 236 240 242 243 246 251 251 253 258
222 221 218 218 223 230 233 228 222 203 186 182 189 198 209 219 212 199 130 134 142 143 140 150 168 174 170 161 188 186 154 121 161 167 184 188 217 209 207 209 191 196 202 194 210 165 149 206 304 39 145 194 3 19 60 58 95 129 174 207 131 40 35 146 242 353 143 249 262 185 238 270 286 276 258 213 231 234 230 232 234 237 236 239 248 253 257 260
212 216 223 225 228 233 233 232 225 199 178 187 223 211 212 216 213 227 164 138 145 152 159 169 173 185 177 168 182 180 165 161 172 181 177 174 221 202 196 206 194 198 204 197 207 239 156 192 297 357 354 308 20 47 190 360 49 110 187 250 108 113 262 142 167 242 213 239 266 246 254 259 234 246 278 254 218 220 225 223 223 229 229 235 246 255 261 262
207 208 222 230 231 229 232 237 220 187 166 181 210 214 223 208 210 229 236 159 159 170 181 173 162 192 194 176 169 172 175 176 172 181 184 175 214 199 187 193 197 198 199 193 197 224 150 192 253 322 323 354 47 208 199 190 33 37 350 331 98 151 189 174 181 197 182 215 254 275 281 260 228 226 245 238 220 206 207 216 223 222 225 234 245 257 263 262
218 218 230 227 221 216 222 227 204 173 159 201 206 224 286 222 203 225 236 195 169 179 194 183 163 175 199 183 160 163 182 190 174 181 199 182 195 207 187 184 188 189 186 187 192 140 110 198 211 319 333 14 171 215 194 172 157 158 257 221 198 153 134 166 259 185 164 194 236 272 277 264 238 200 220 227 223 210 197 204 218 215 222 235 246 257 262 261
221 250 260 207 201 201 204 206 188 154 132 218 229 282 324 344 316 239 249 261 254 69 193 202 182 174 179 177 171 165 172 188 182 187 205 190 200 227 186 177 169 157 162 173 190 178 167 191 171 151 260 214 215 214 194 183 181 187 197 197 201 192 157 187 250 221 155 185 210 211 269 272 248 168 205 213 214 207 187 184 198 207 218 232 246 256 258 258
213 232 251 199 194 191 189 189 147 117 156 210 206 215 298 332 329 271 303 323 312 25 23 275 211 185 180 177 175 161 162 184 187 188 208 206 208 214 183 176 168 159 157 171 197 194 182 152 157 181 199 199 217 208 187 186 183 203 222 209 199 192 174 182 212 211 165 226 237 205 259 269 260 106 108 91 69 103 165 175 183 195 211 232 256 260 256 255
214 219 222 200 196 189 185 183 132 136 163 217 203 218 251 298 334 334 323 308 271 17 356 285 292 197 192 183 176 167 166 187 196 194 207 216 216 211 186 175 167 162 161 168 195 188 168 131 170 198 211 67 35 17 14 79 99 232 252 211 175 199 193 184 193 194 168 200 218 199 245 263 288 62 71 107 98 105 154 177 177 186 225 259 266 258 249 248
225 234 241 232 203 194 189 176 158 177 165 151 187 223 223 238 275 293 307 264 190 27 16 241 299 301 215 168 179 181 177 187 204 202 204 212 214 211 193 179 170 166 171 177 172 163 165 177 165 169 204 325 2 346 325 333 104 235 244 195 198 213 188 168 191 212 223 219 207 192 240 256 278 26 18 84 120 167 197 198 201 236 259 258 255 252 244 242
223 238 240 230 212 204 205 207 161 171 170 157 173 198 191 216 242 237 245 283 263 271 325 255 347 24 20 25 19 210 190 195 204 202 207 211 198 202 196 185 178 176 183 182 172 163 167 187 170 176 203 214 225 221 204 196 175 236 232 202 203 205 186 172 172 189 228 234 222 210 243 253 262 23 14 325 238 229 224 215 223 245 251 250 249 248 245 241
207 220 219 210 213 214 219 223 206 171 170 175 178 185 185 198 226 221 228 247 264 259 283 314 343 33 16 218 232 295 234 225 224 200 202 207 193 24 197 190 186 181 174 172 168 159 145 201 187 195 210 214 225 220 170 148 149 198 217 205 201 204 199 188 172 201 221 236 240 230 237 258 266 265 283 282 260 243 243 230 228 239 247 254 253 245 243 248
210 213 196 180 207 225 232 223 212 200 176 178 176 173 190 202 203 201 208 215 228 229 231 291 262 220 234 192 200 217 218 258 269 217 200 197 159 30 32 194 188 173 161 162 164 154 107 210 202 209 221 226 231 212 161 154 171 198 206 203 204 207 202 198 210 222 219 221 247 240 224 250 264 254 233 254 258 247 248 240 236 242 250 261 260 248 244 252
216 226 214 198 193 217 227 213 206 205 189 180 184 177 183 197 200 190 196 204 213 209 203 243 239 229 239 211 194 209 196 214 262 226 202 173 112 83 42 1 15 148 147 149 158 144 128 205 214 215 226 238 242 223 179 172 185 194 196 201 205 205 203 206 220 228 221 211 242 250 228 233 259 260 230 232 246 237 235 240 244 249 250 253 254 247 244 252
223 244 226 216 221 230 221 209 200 205 198 182 188 198 187 195 203 198 181 179 206 203 192 207 222 220 231 229 211 218 207 204 231 231 202 125 121 125 113 357 328 59 104 118 142 122 149 203 223 219 232 249 248 239 220 215 222 208 200 202 200 203 207 210 220 228 227 227 241 252 251 245 255 262 245 241 254 253 252 256 262 265 257 245 242 243 249 258
217 230 225 224 240 265 253 219 197 203 205 190 196 206 197 199 203 201 179 166 184 196 189 208 221 207 214 223 216 221 224 214 229 234 190 143 192 191 166 189 220 35 65 105 97 30 179 210 221 205 242 259 252 248 242 236 249 247 234 223 211 211 212 214 222 227 229 237 240 246 257 259 256 259 259 261 265 271 277 278 277 278 274 262 252 250 252 257
214 218 230 251 241 225 248 240 194 199 205 195 202 204 203 208 202 195 193 188 189 182 181 205 218 200 199 215 214 224 229 220 229 237 191 145 191 201 186 191 124 110 136 133 61 87 175 213 180 131 231 253 251 253 252 245 263 265 256 243 229 224 221 217 220 221 221 230 236 241 251 256 256 259 262 266 269 273 276 274 273 276 276 270 260 257 258 262
219 223 231 256 253 210 207 222 205 207 206 202 207 204 205 213 202 191 199 200 200 201 196 200 204 185 184 203 209 222 225 222 229 239 232 182 206 174 130 156 127 122 144 130 74 94 151 170 199 169 210 249 256 257 209 155 232 249 246 241 234 233 236 233 227 224 221 222 228 235 238 248 262 269 263 265 268 262 265 271 273 273 273 268 263 263 267 274